Weather History for Great Falls, MT

Change the Weather History Date:

Sunday, April 7, 2013

  Actual Average Record
Temperature  
Mean Temperature 38 °F 41 °F  
Max Temperature 50 °F 53 °F 81 °F (1930)
Min Temperature 26 °F 29 °F 4 °F (1982)
Degree Days  
Heating Degree Days 27 24  
Month to date heating degree days 133 176  
Since 1 July heating degree days 5838 6634  
Cooling Degree Days 0 0  
Month to date cooling degree days 0 0  
Year to date cooling degree days 0 0  
Moisture  
Dew Point 29 °F    
Average Humidity 67    
Maximum Humidity 92    
Minimum Humidity 42    
Precipitation  
Precipitation 0.18 in 0.05 in 0.69 in (1975)
Month to date precipitation 0.19 0.29  
Year to date precipitation 1.47 2.18  
Snow  
Snow 2.80 in 0.30 in 6.90 in (1975)
Month to date snowfall 2.8 2.4  
Since 1 July snowfall 62.6 54.3  
Snow Depth 0.00 in    
Sea Level Pressure  
Sea Level Pressure 29.77 in    
Wind  
Wind Speed 11 mph (NNW)    
Max Wind Speed 26 mph    
Max Gust Speed 31 mph    
Visibility 7 miles    
Events Rain , Snow    
T = Trace of Precipitation, MM = Missing Value Source: NWS Daily Summary

Daily Weather History Graph

Daily Weather History Graph

Search for Another Location

Airport:

Trip Planner

Search our weather history database for the weather conditions in past years. The results will help you decide how hot, cold, wet, or windy it might be!

Date:

Astronomy

Apr. 07, 2013 Rise Set
Actual Time 6:51 AM MDT 8:04 PM MDT
Civil Twilight 6:20 AM MDT 8:35 PM MDT
Nautical Twilight 5:42 AM MDT 9:14 PM MDT
Astronomical Twilight 5:01 AM MDT 9:54 PM MDT
Moon 5:21 AM MDT (4/7) 5:31 PM MDT (4/7)
Length of Visible Light 14h 15m
Length of Day
13h 12m
Waning Crescent, 8% of the Moon is Illuminated
Apr 7
Waning Crescent
Apr 10
New
Apr 18
First Quarter
Apr 25
Full
May 2
Last Quarter

Hourly Weather History & Observations

Time (MDT) Temp. Windchill Dew Point Humidity Pressure Visibility Wind Dir Wind Speed Gust Speed Precip Events Conditions
12:53 AM 39.0 °F 32.3 °F 25.0 °F 57% 29.79 in 10.0 mi SW 10.4 mph - N/A   Clear
1:53 AM 39.9 °F 32.1 °F 25.0 °F 55% 29.78 in 10.0 mi SW 13.8 mph - N/A   Clear
2:53 AM 41.0 °F 33.1 °F 25.0 °F 53% 29.77 in 10.0 mi SW 15.0 mph - N/A   Clear
3:53 AM 39.9 °F 32.9 °F 25.0 °F 55% 29.75 in 10.0 mi SW 11.5 mph - N/A   Clear
4:53 AM 39.0 °F 32.8 °F 24.1 °F 55% 29.73 in 10.0 mi SSW 9.2 mph - N/A   Clear
5:53 AM 36.0 °F 29.6 °F 24.1 °F 62% 29.75 in 10.0 mi SW 8.1 mph - N/A   Clear
6:53 AM 37.9 °F 33.5 °F 25.0 °F 60% 29.73 in 10.0 mi SW 5.8 mph - N/A   Scattered Clouds
7:53 AM 39.9 °F - 26.1 °F 58% 29.72 in 10.0 mi Calm Calm - N/A   Overcast
8:53 AM 44.1 °F - 25.0 °F 47% 29.70 in 10.0 mi Calm Calm - N/A   Overcast
9:50 AM 66.2 °F - 53.6 °F 64% 30.12 in 10.0 mi SSW 9.2 mph - N/A   Scattered Clouds
9:53 AM 46.9 °F - 26.1 °F 44% 29.68 in 10.0 mi SW 5.8 mph - N/A   Mostly Cloudy
10:53 AM 48.9 °F - 27.0 °F 43% 29.67 in 10.0 mi WSW 8.1 mph - N/A   Overcast
11:53 AM 48.9 °F - 30.9 °F 50% 29.67 in 10.0 mi Variable 3.5 mph - 0.00 in   Overcast
12:53 PM 46.9 °F - 33.1 °F 59% 29.68 in 8.0 mi SW 5.8 mph - 0.00 in Rain Light Rain
1:34 PM 46.4 °F - 33.8 °F 62% 29.64 in 10.0 mi Calm Calm - 0.00 in Rain Light Rain
1:53 PM 45.0 °F 41.8 °F 36.0 °F 71% 29.68 in 7.0 mi NW 5.8 mph - 0.00 in Rain Light Rain
2:37 PM 44.6 °F 40.2 °F 35.6 °F 71% 29.64 in 10.0 mi NNE 8.1 mph - 0.01 in Rain Light Rain
2:53 PM 44.1 °F 39.5 °F 36.0 °F 73% 29.68 in 10.0 mi NNE 8.1 mph - 0.01 in Rain Light Rain
3:35 PM 44.6 °F 37.4 °F 35.6 °F 71% 29.63 in 10.0 mi NE 16.1 mph - 0.00 in Rain Light Rain
3:53 PM 43.0 °F 36.0 °F 36.0 °F 76% 29.68 in 10.0 mi ENE 13.8 mph - 0.00 in Rain Light Rain
4:10 PM 44.6 °F 39.7 °F 35.6 °F 71% 29.63 in 10.0 mi ENE 9.2 mph - 0.00 in Rain Light Rain
4:53 PM 45.0 °F 39.3 °F 35.1 °F 68% 29.68 in 10.0 mi NE 11.5 mph - 0.00 in   Overcast
5:53 PM 41.0 °F 31.6 °F 28.0 °F 60% 29.73 in 10.0 mi NNE 20.7 mph 28.8 mph 0.00 in   Overcast
6:53 PM 37.9 °F 27.3 °F 25.0 °F 60% 29.78 in 10.0 mi North 21.9 mph - N/A   Overcast
7:53 PM 34.0 °F 22.4 °F 24.1 °F 67% 29.83 in 8.0 mi North 20.7 mph 28.8 mph 0.00 in Snow Light Snow
8:11 PM 32.0 °F 20.5 °F 24.8 °F 75% 29.76 in 2.0 mi North 18.4 mph - 0.00 in Snow Light Snow
8:19 PM 30.2 °F 17.4 °F 24.8 °F 80% 29.77 in 1.5 mi North 20.7 mph - 0.00 in Snow Light Snow
8:28 PM 30.2 °F 18.5 °F 26.6 °F 86% 29.77 in 1.2 mi North 17.3 mph - 0.01 in Snow Light Snow
8:45 PM 30.2 °F 18.1 °F 26.6 °F 86% 29.79 in 1.0 mi North 18.4 mph - 0.02 in Snow Light Snow
8:53 PM 30.0 °F 18.7 °F 26.1 °F 85% 29.88 in 1.0 mi North 16.1 mph - 0.02 in Snow Light Snow
9:15 PM 28.4 °F 18.0 °F 26.6 °F 93% 29.82 in 1.5 mi North 12.7 mph - 0.01 in Snow Light Snow
9:34 PM 28.4 °F 17.5 °F 26.6 °F 93% 29.83 in 1.2 mi North 13.8 mph - 0.02 in Snow Light Snow
9:53 PM 28.9 °F 18.2 °F 25.0 °F 85% 29.93 in 0.8 mi North 13.8 mph - 0.03 in Snow Light Snow
10:03 PM 28.4 °F 17.5 °F 24.8 °F 86% 29.85 in 1.0 mi North 13.8 mph - 0.01 in Snow Light Snow
10:53 PM 28.0 °F 17.0 °F 24.1 °F 85% 29.95 in 1.0 mi North 13.8 mph - 0.04 in Snow Light Snow
11:14 PM 26.6 °F 16.8 °F 24.8 °F 93% 29.88 in 1.2 mi North 10.4 mph - 0.02 in Snow Light Snow
11:53 PM 27.0 °F 17.3 °F 24.1 °F 89% 29.97 in 0.8 mi North 10.4 mph - 0.04 in Snow Light Snow